TimeCDT,TemperatureF,Dew PointF,Humidity,Sea Level PressureIn,VisibilityMPH,Wind Direction,Wind SpeedMPH,Gust SpeedMPH,PrecipitationIn,Events,Conditions,WindDirDegrees,DateUTC
12:15 AM,39.2,39.2,100,29.89,10.0,NW,12.7,19.6,N/A,,Overcast,310,2013-03-24 05:15:00
12:35 AM,39.2,39.2,100,29.89,10.0,NW,15.0,24.2,N/A,,Overcast,310,2013-03-24 05:35:00
12:55 AM,39.2,39.2,100,29.89,7.0,NW,13.8,19.6,N/A,,Overcast,310,2013-03-24 05:55:00
1:15 AM,37.4,37.4,100,29.87,5.0,NW,15.0,-,N/A,,Overcast,320,2013-03-24 06:15:00
1:55 AM,37.4,37.4,100,29.89,10.0,NW,17.3,24.2,N/A,,Overcast,310,2013-03-24 06:55:00
2:15 AM,37.4,37.4,100,29.90,10.0,NW,18.4,23.0,N/A,,Overcast,310,2013-03-24 07:15:00
2:35 AM,37.4,37.4,100,29.90,10.0,NW,20.7,25.3,N/A,,Overcast,310,2013-03-24 07:35:00
2:55 AM,37.4,37.4,100,29.90,10.0,NW,20.7,25.3,N/A,,Overcast,310,2013-03-24 07:55:00
3:15 AM,37.4,35.6,93,29.91,10.0,NW,27.6,35.7,N/A,,Overcast,310,2013-03-24 08:15:00
3:55 AM,35.6,35.6,100,29.91,10.0,NW,23.0,28.8,N/A,,Overcast,320,2013-03-24 08:55:00
4:15 AM,35.6,33.8,93,29.91,10.0,NNW,25.3,33.4,N/A,Snow,Light Snow,330,2013-03-24 09:15:00
4:35 AM,35.6,33.8,93,29.91,10.0,NNW,26.5,32.2,N/A,,Overcast,330,2013-03-24 09:35:00
4:55 AM,35.6,32.0,87,29.92,10.0,NNW,26.5,38.0,N/A,,Overcast,330,2013-03-24 09:55:00
5:15 AM,35.6,32.0,87,29.92,10.0,NNW,19.6,34.5,N/A,,Overcast,330,2013-03-24 10:15:00
5:55 AM,35.6,32.0,87,29.94,10.0,NNW,25.3,32.2,N/A,,Overcast,330,2013-03-24 10:55:00
6:15 AM,35.6,32.0,87,29.94,10.0,NNW,23.0,32.2,N/A,,Overcast,330,2013-03-24 11:15:00
6:35 AM,35.6,32.0,87,29.96,10.0,NW,17.3,29.9,N/A,,Overcast,320,2013-03-24 11:35:00
6:55 AM,35.6,32.0,87,29.97,10.0,NNW,25.3,39.1,N/A,,Overcast,330,2013-03-24 11:55:00
7:15 AM,35.6,32.0,87,29.98,10.0,NNW,32.2,36.8,N/A,,Overcast,340,2013-03-24 12:15:00
7:35 AM,35.6,32.0,87,30.00,10.0,NNW,23.0,28.8,N/A,,Overcast,330,2013-03-24 12:35:00
8:15 AM,33.8,32.0,93,30.04,10.0,NW,23.0,32.2,N/A,,Overcast,320,2013-03-24 13:15:00
8:35 AM,33.8,30.2,87,30.06,7.0,NW,26.5,35.7,N/A,Snow,Light Snow,320,2013-03-24 13:35:00
8:55 AM,33.8,30.2,87,30.06,7.0,NW,28.8,34.5,N/A,,Overcast,320,2013-03-24 13:55:00
9:15 AM,33.8,30.2,87,30.07,10.0,NW,25.3,31.1,N/A,,Overcast,320,2013-03-24 14:15:00
9:35 AM,33.8,30.2,87,30.09,10.0,NW,21.9,28.8,N/A,,Overcast,320,2013-03-24 14:35:00
9:55 AM,35.6,30.2,81,30.09,10.0,NNW,20.7,31.1,N/A,,Overcast,330,2013-03-24 14:55:00
10:15 AM,35.6,30.2,81,30.09,10.0,NNW,20.7,27.6,N/A,,Overcast,330,2013-03-24 15:15:00
10:35 AM,35.6,30.2,81,30.09,10.0,NNW,26.5,31.1,N/A,,Overcast,340,2013-03-24 15:35:00
10:55 AM,35.6,30.2,81,30.10,10.0,NNW,26.5,33.4,N/A,,Overcast,330,2013-03-24 15:55:00
11:15 AM,37.4,30.2,75,30.12,10.0,NW,23.0,28.8,N/A,,Mostly Cloudy,320,2013-03-24 16:15:00
11:35 AM,39.2,30.2,70,30.12,10.0,NW,25.3,32.2,N/A,,Mostly Cloudy,320,2013-03-24 16:35:00
11:55 AM,41.0,30.2,65,30.13,10.0,NW,21.9,32.2,N/A,,Mostly Cloudy,320,2013-03-24 16:55:00
12:15 PM,37.4,30.2,75,30.12,10.0,NNW,21.9,32.2,N/A,,Mostly Cloudy,330,2013-03-24 17:15:00
12:35 PM,41.0,30.2,65,30.12,10.0,NNW,26.5,32.2,N/A,,Mostly Cloudy,340,2013-03-24 17:35:00
12:55 PM,41.0,30.2,65,30.12,10.0,NNW,23.0,34.5,N/A,,Mostly Cloudy,330,2013-03-24 17:55:00
1:15 PM,42.8,30.2,61,30.12,10.0,NNW,24.2,33.4,N/A,,Mostly Cloudy,330,2013-03-24 18:15:00
1:55 PM,42.8,30.2,61,30.11,10.0,NNW,26.5,32.2,N/A,,Scattered Clouds,330,2013-03-24 18:55:00
2:15 PM,42.8,30.2,61,30.11,10.0,NNW,18.4,24.2,N/A,,Scattered Clouds,330,2013-03-24 19:15:00
2:35 PM,42.8,28.4,57,30.11,10.0,NNW,20.7,32.2,N/A,,Scattered Clouds,330,2013-03-24 19:35:00
2:55 PM,44.6,28.4,53,30.10,10.0,NNW,23.0,29.9,N/A,,Clear,330,2013-03-24 19:55:00
3:15 PM,44.6,28.4,53,30.09,10.0,NNW,21.9,28.8,N/A,,Clear,340,2013-03-24 20:15:00
3:35 PM,44.6,28.4,53,30.09,10.0,North,20.7,28.8,N/A,,Clear,350,2013-03-24 20:35:00
3:55 PM,44.6,26.6,49,30.08,10.0,NNW,23.0,26.5,N/A,,Clear,340,2013-03-24 20:55:00
4:15 PM,44.6,26.6,49,30.09,10.0,NW,20.7,25.3,N/A,,Clear,320,2013-03-24 21:15:00
4:35 PM,46.4,26.6,46,30.09,10.0,NNW,19.6,24.2,N/A,,Clear,330,2013-03-24 21:35:00
5:15 PM,44.6,24.8,46,30.10,10.0,NNW,23.0,27.6,N/A,,Clear,340,2013-03-24 22:15:00
5:35 PM,46.4,23.0,40,30.10,10.0,North,15.0,26.5,N/A,,Clear,350,2013-03-24 22:35:00
5:55 PM,44.6,24.8,46,30.10,10.0,North,23.0,-,N/A,,Clear,350,2013-03-24 22:55:00
6:15 PM,44.6,23.0,43,30.11,10.0,NNW,20.7,-,N/A,,Clear,340,2013-03-24 23:15:00
6:35 PM,42.8,23.0,46,30.12,10.0,NNW,20.7,-,N/A,,Clear,330,2013-03-24 23:35:00
6:55 PM,42.8,24.8,49,30.14,10.0,NNW,15.0,-,N/A,,Clear,330,2013-03-24 23:55:00
7:15 PM,42.8,24.8,49,30.15,10.0,NNW,16.1,-,N/A,,Clear,340,2013-03-25 00:15:00
7:55 PM,37.4,24.8,60,30.17,10.0,NNW,16.1,21.9,N/A,,Clear,330,2013-03-25 00:55:00
8:15 PM,37.4,23.0,56,30.18,10.0,NNW,10.4,-,N/A,,Clear,340,2013-03-25 01:15:00
8:35 PM,35.6,24.8,65,30.18,10.0,North,10.4,-,N/A,,Clear,350,2013-03-25 01:35:00
8:55 PM,35.6,24.8,65,30.19,10.0,North,4.6,-,N/A,,Clear,350,2013-03-25 01:55:00
9:15 PM,35.6,24.8,65,30.18,10.0,North,5.8,-,N/A,,Clear,360,2013-03-25 02:15:00
9:55 PM,33.8,23.0,65,30.19,10.0,North,5.8,-,N/A,,Clear,350,2013-03-25 02:55:00
10:15 PM,32.0,24.8,75,30.21,10.0,NNW,5.8,-,N/A,,Clear,330,2013-03-25 03:15:00
10:35 PM,32.0,24.8,75,30.22,10.0,NNW,5.8,-,N/A,,Clear,330,2013-03-25 03:35:00
10:55 PM,32.0,24.8,75,30.23,10.0,NNW,6.9,-,N/A,,Clear,330,2013-03-25 03:55:00
11:15 PM,32.0,24.8,75,30.22,10.0,NNW,5.8,-,N/A,,Clear,330,2013-03-25 04:15:00
11:35 PM,32.0,24.8,75,30.22,10.0,North,5.8,-,N/A,,Clear,350,2013-03-25 04:35:00
11:55 PM,32.0,24.8,75,30.21,10.0,North,3.5,-,N/A,,Clear,10,2013-03-25 04:55:00